DECAYED

CZ-6A DEB, 60985 (Decayed)

Orbit data source: Space-Track

CZ-6A DEB, 60985 was space debris in LEO originally from a launch on Tue, 06 Aug 2024 UTC launched from the Taiyaun Space Center, China (TSC). Debris objects in space refer to the collection of defunct objects orbiting the Earth. Examples of debris include non-operational satellites, rocket bodies, and fragments generated from explosions, collisions, or faulty payload assembly.

Not visible in the next 10 days
Identifier
60985, 2024-140ML
Orbit
Decayed
Country
Flag of CNCN / PRC
Related business
Manufacturer
SAST
Mission
Decayed spacecraft
Bus & Motor
Unknown
Mass
Unknown
Launch date (UTC)
2024-08-06 (2 years ago)
Launch vehicle
Unknown
Launch site
Taiyaun Space Center, China (TSC)
Object type
Payload
Rocket body
Debris
Shape & HBR
Unknown shape, 0.1 m
Radar Cross Section
Small (<0.1 m²)

Expand to show TLE details & history
Last TLE update: 4 months ago

TLE from 4 months ago
0 CZ-6A DEB
1 60985U 24140ML  26019.75049837  .00737147  19913-3  32164-2 0  9993
2 60985  89.0505 287.2425 0030215 206.2628 153.7122 15.84007483 78022
Epoch: 2026-01-19T18:00Z
TLE epoch observation values (Epoch: 2026-01-19T18:00:43.059Z)
Latitude
-0.00002°
Longitude
-102.07915°
Altitude
340.565 km
Speed
7.694 km/s
True Right ascension
19h 08m 58s
True Declination
0° 00' 00"
Sunlit
Object was in daylight at epoch
Visualization orbit readout
Latitude
Unknown
Longitude
Unknown
Altitude
Unknown
Speed
Unknown
Apparent Right ascension
Unknown
Apparent Declination
Unknown
Sunlit
N/A
Visualization observer readout
Local Sidereal Time
20:41:33
Azimuth
Unknown
Elevation
Unknown
Doppler factor
Unknown
Orbital elements
Apogee altitude
336.067 km
Perigee altitude
295.615 km
Semi-major axis
6,693.978 km
Eccentricity
0.00302
Inclination
89.0505°
RAAN
287.2425°
Arg. of periapsis
206.2628°
True anomaly
153.86502°
Mean anomaly
153.7122°
Eccentric anomaly
153.78866°
Mean motion
3.96293 °/min
Orbital period
90.84 mins
BSTAR
0.0032164
Loading maneuver chart data...
Computing Atmospheric mass density...
Loading historical data...
Loading historical data...
Loading historical data...
Loading historical data...
Loading historical data...
Loading historical data...
Loading historical data...

Documentation

Showing up to 5 results
|